Lid_Strength_Index
6 7 7 6 7 7 7 7 6 6 6 6 5 4 3 3 2 4 6 4 6 9 9 7 7 9 9 9 11 9 10 12 13 14 14 14 16 14 15 13 14 15 16 16 15 17 18 9 10 13 10 9 9 9
6 7 7 7 7 7 7 6 6 6 6 5 5 4 3 3 3 3 7 5 3 7 8 6 6 6 7 7 9 9 10 10 9 11 13 11 14 16 15 16 12 15 13 15 13 14 11 9 9 9 8 9 8 8
6 6 7 7 7 7 7 6 6 6 5 5 5 5 4 4 3 4 5 6 5 8 8 8 8 6 5 6 5 10 8 7 7 7 8 10 13 14 15 15 14 12 11 12 12 10 10 9 8 9 8 7 7 8
6 6 6 6 6 6 6 6 6 6 6 5 5 5 4 3 3 3 6 6 5 7 12 11 7 8 5 6 6 6 7 7 6 6 8 10 12 9 13 13 14 11 11 12 13 10 10 9 9 9 8 8 9 8
6 6 6 6 6 6 6 6 6 6 5 5 5 4 4 4 3 4 5 5 4 7 12 11 7 6 6 6 6 6 6 6 6 8 9 10 8 9 9 13 12 10 11 13 13 11 11 11 9 9 10 10 9 9
5 5 5 5 5 6 6 6 6 6 5 5 5 4 4 4 3 7 8 3 3 4 9 13 9 7 6 6 6 6 6 6 6 8 8 8 6 8 12 15 10 10 10 9 9 10 9 9 9 10 10 10 10 9
4 4 4 4 5 5 5 5 5 5 5 5 4 4 4 3 5 7 10 5 2 3 7 11 11 8 7 7 7 7 7 6 7 8 9 8 8 8 10 13 10 9 9 9 9 9 10 11 12 11 10 9 9 9
4 4 4 4 4 5 4 5 5 4 4 4 4 4 3 3 3 6 5 2 2 5 6 10 11 10 7 9 9 7 8 6 7 8 8 9 8 9 12 9 9 8 9 9 10 10 11 10 11 10 9 10 11 10
3 3 3 3 4 4 4 4 4 4 4 4 3 3 3 4 5 5 1 0 2 4 8 9 11 13 7 9 9 9 6 10 6 9 9 8 10 12 10 8 9 9 10 10 10 11 10 9 11 11 10 11 12 12
3 3 3 3 3 3 3 3 3 3 3 3 3 5 8 4 1 1 4 5 5 5 6 9 8 10 8 10 10 11 9 10 12 10 8 10 11 8 7 9 9 10 10 11 12 11 11 10 12 11 11 12 12 12
3 3 3 3 3 3 3 3 3 3 4 6 7 7 5 3 6 6 8 8 8 9 7 8 8 10 6 10 10 9 13 11 14 12 12 12 13 10 10 10 11 11 11 11 9 9 9 10 12 12 12 12 12 12
3 3 3 3 3 3 3 3 3 5 6 7 7 6 5 7 8 9 10 9 9 10 7 10 8 7 7 6 9 9 11 10 14 9 12 14 10 10 10 10 11 11 10 9 9 9 9 10 11 12 12 12 13 13
3 3 3 3 3 3 3 3 3 3 4 6 7 8 8 8 11 12 13 11 11 8 7 7 9 7 6 6 8 9 12 13 9 13 13 12 10 9 10 10 11 10 9 9 9 9 9 10 10 12 13 12 12 13
3 3 3 3 3 3 3 2 2 3 5 8 9 12 10 11 10 10 10 9 7 6 7 8 8 10 9 9 9 12 10 10 13 14 14 11 9 10 10 10 11 11 10 10 9 9 10 10 11 11 12 13 13 14
3 2 2 2 2 2 2 2 2 3 6 9 9 13 11 9 8 7 6 6 5 6 7 8 8 8 9 10 10 11 13 14 13 14 11 10 9 9 10 10 11 11 11 11 10 9 10 10 11 11 12 13 13 14
2 2 3 2 2 2 1 2 3 4 7 9 9 10 9 9 10 9 9 8 7 6 7 8 9 10 11 10 12 13 14 15 12 11 10 10 9 9 10 10 9 10 10 10 10 10 9 10 11 11 11 12 13 13
2 5 3 2 2 2 2 4 5 7 10 10 10 9 10 10 10 10 10 10 8 9 11 9 11 11 9 12 13 11 13 11 10 10 9 8 9 10 9 9 8 8 9 10 10 10 10 9 10 11 12 12 12 13
4 3 2 2 3 3 5 5 6 8 11 10 12 10 10 9 10 9 9 9 10 10 9 11 9 11 12 13 14 11 9 8 8 8 8 8 9 9 9 9 8 8 9 9 10 11 11 10 10 11 12 12 12 12
3 4 2 2 3 5 7 7 8 11 11 10 10 10 10 10 9 8 9 8 9 9 9 10 11 12 12 10 10 9 8 8 8 8 7 8 9 9 8 8 8 9 10 10 11 12 12 12 10 10 10 11 12 12
2 2 2 2 3 6 8 8 6 9 12 11 10 11 11 10 9 9 9 9 10 10 11 11 10 10 10 9 8 8 7 7 7 8 7 9 8 8 9 9 9 9 10 11 11 11 12 13 12 12 12 13 13 12
3 4 3 3 4 5 8 7 9 8 8 11 10 10 11 11 11 11 10 9 11 12 12 10 9 8 7 7 7 7 7 6 6 6 6 8 8 8 9 9 9 9 10 11 11 11 11 12 12 12 12 12 12 12
6 2 4 3 6 6 7 5 6 7 8 9 10 10 11 12 12 11 10 12 12 11 10 9 8 8 8 8 7 8 7 6 5 4 6 7 9 9 9 9 9 10 10 10 10 11 11 11 11 11 11 11 11 11
2 3 4 5 8 9 10 6 9 8 10 9 9 11 12 12 12 11 13 13 12 9 8 8 7 7 7 6 7 7 6 5 5 5 5 6 6 6 8 8 8 9 10 9 9 9 10 11 10 10 10 10 11 11
2 6 8 9 9 13 9 10 8 9 9 10 10 11 11 11 10 11 12 11 9 8 8 8 7 8 8 8 8 8 7 5 6 6 5 7 8 8 7 7 7 7 8 8 8 9 9 9 9 9 9 10 10 11
9 10 10 12 9 10 11 11 10 10 11 10 10 10 9 8 11 10 11 10 10 9 8 7 8 7 8 8 8 8 7 6 6 7 6 6 6 7 7 7 7 7 6 8 8 8 9 9 9 9 9 9 10 10
13 11 11 11 10 11 11 12 12 12 11 11 10 8 8 10 11 11 10 9 8 8 8 7 7 8 8 7 8 8 8 6 6 6 6 4 5 6 6 7 7 7 6 6 7 8 8 8 8 8 8 9 10 9
13 11 10 7 8 9 10 9 8 10 11 12 10 10 10 12 12 10 8 7 7 6 6 6 6 7 7 8 7 7 7 6 5 5 5 4 4 4 4 5 6 5 4 5 6 6 7 7 7 7 7 7 8 8
10 9 11 9 8 8 10 9 10 10 9 8 8 11 11 11 11 8 6 5 5 5 5 5 5 5 6 5 6 5 5 5 5 5 5 5 5 4 3 3 3 8 4 4 5 5 5 6 6 6 6 7 7 7
10 9 8 10 10 9 9 9 9 7 6 7 9 10 9 6 5 6 6 5 5 4 4 4 6 5 5 5 5 4 4 4 5 6 6 7 6 6 4 5 6 4 4 5 9 7 5 5 5 5 5 5 5 5
10 8 9 8 9 10 9 8 8 6 6 6 8 9 9 7 6 4 4 4 5 4 4 5 5 5 6 5 6 5 5 5 4 4 6 6 6 5 5 4 4 4 5 5 6 8 10 6 7 5 5 5 5 6
8 7 8 8 9 7 7 6 6 6 6 7 6 8 10 9 6 4 4 3 4 4 4 5 5 5 5 5 5 6 6 5 5 4 5 5 6 5 5 4 4 5 4 5 6 6 6 5 5 5 5 5 5 6
9 10 10 10 10 8 6 7 7 7 7 8 9 7 7 8 8 7 5 4 5 6 8 5 6 6 6 6 6 7 9 7 6 5 5 5 5 5 5 5 5 5 5 5 5 5 5 5 5 5 5 5 4 5
10 10 10 10 10 9 8 8 8 8 8 9 8 7 7 8 10 7 5 5 7 7 8 7 7 7 8 8 8 8 9 9 10 10 10 9 9 7 4 4 4 4 4 4 5 4 4 4 5 4 5 5 4 4